Wetbulb
68.63 68.90 68.03 67.63 68.10 67.55 67.78 65.88 65.08 65.04 65.32 65.34 65.92 66.53 67.63 68.01 67.51 68.75 67.87 73.87 72.48 73.15 74.78 75.10 74.45 74.46 74.12 73.47 73.77 74.16 73.94 73.37 72.69 72.01 71.45 71.40 71.33 71.59 71.24 71.12 71.60 71.47 71.17
69.87 67.92 67.77 67.79 67.18 67.50 67.54 66.35 64.69 64.09 64.33 65.66 66.54 68.07 70.08 70.19 69.86 69.56 67.64 70.36 72.81 72.84 73.82 74.93 75.10 74.98 74.91 74.54 73.81 73.82 73.78 73.24 73.06 72.26 71.51 71.12 71.05 70.96 71.09 70.98 71.49 71.54 71.22
69.67 68.94 67.62 67.54 67.00 67.14 66.62 66.00 63.83 63.98 64.62 66.99 67.43 68.64 69.98 70.61 70.61 70.62 70.37 69.65 70.31 72.56 72.92 73.77 74.54 74.81 75.02 75.34 74.89 74.03 73.40 73.19 72.93 72.13 71.55 71.25 71.06 70.72 70.99 71.31 71.26 71.53 71.55
70.95 68.00 67.95 67.84 67.87 67.07 66.54 65.59 64.99 64.75 64.93 65.20 67.51 68.29 68.20 69.19 69.75 70.11 69.70 69.23 70.24 70.20 71.59 73.27 73.77 74.37 74.77 75.37 75.54 75.12 73.89 72.93 72.47 71.99 71.67 71.50 71.32 71.00 70.67 70.87 71.10 71.19 71.14
70.80 69.72 67.99 68.48 67.02 67.55 66.87 66.36 65.64 64.76 64.00 65.08 65.14 64.77 65.08 66.14 67.83 70.07 69.53 69.11 69.32 69.68 69.69 71.10 72.67 73.04 73.55 74.67 75.44 75.49 74.71 73.20 72.15 71.94 71.73 71.65 71.77 71.37 71.00 70.69 70.66 70.63 70.63
69.60 70.00 69.87 68.16 67.31 66.76 65.89 65.55 65.26 64.86 64.77 65.08 66.03 65.87 64.47 65.30 66.78 67.69 68.87 68.94 68.36 68.83 69.29 69.15 69.05 71.21 72.49 73.62 74.56 75.07 75.47 74.36 72.67 72.07 71.29 71.07 71.28 71.57 71.09 70.93 70.55 70.28 70.13
69.42 68.90 69.69 68.97 67.78 68.02 67.86 66.03 65.40 64.83 65.10 64.05 63.10 63.13 64.48 66.64 67.23 67.81 68.30 68.56 68.84 69.25 68.93 69.02 68.54 68.77 69.80 72.12 72.53 73.72 75.42 75.54 74.43 72.80 71.08 70.37 70.68 71.29 71.27 71.05 70.74 70.30 70.08
70.44 69.40 68.61 68.69 69.43 68.27 67.76 66.91 66.20 66.18 65.16 64.60 63.93 61.29 59.81 62.14 66.04 68.81 68.60 68.53 67.94 67.82 68.67 69.20 69.33 69.17 68.83 69.36 70.32 71.53 72.27 72.30 72.68 72.63 71.34 70.49 70.36 70.86 71.50 71.08 70.86 70.45 69.99
70.77 69.62 68.95 68.15 68.08 68.66 68.24 68.59 68.11 66.46 65.93 64.57 65.55 63.37 59.21 59.26 59.94 64.40 66.88 68.15 67.88 67.36 68.25 69.17 69.20 68.85 69.53 68.30 69.34 68.30 67.97 67.59 68.09 69.43 68.90 68.66 70.42 70.97 71.31 71.13 70.69 70.59 70.35
69.39 70.23 69.56 68.23 65.46 63.96 65.13 68.36 69.23 68.85 68.33 66.55 63.90 66.42 64.62 61.64 58.86 57.28 63.64 65.83 66.95 67.15 67.85 68.60 68.50 67.43 67.04 66.56 67.85 68.12 66.13 65.73 67.04 67.94 68.87 68.66 68.39 68.51 71.01 71.20 70.83 70.54 70.63
67.20 66.46 67.63 64.33 63.49 64.47 65.66 65.95 66.15 67.62 67.80 66.80 65.65 65.73 64.76 65.23 64.15 60.12 58.07 61.41 64.23 66.36 67.60 67.92 66.50 64.50 66.17 67.29 66.07 64.97 64.64 65.44 66.17 66.26 66.48 66.94 67.14 68.43 69.35 70.86 71.23 70.90 70.97
62.03 66.39 65.79 62.78 62.60 62.55 62.37 63.28 64.39 65.17 66.71 66.07 66.20 64.87 61.24 59.48 57.69 56.28 55.50 58.44 59.71 62.25 64.55 64.73 63.97 63.38 64.14 64.89 66.88 65.48 63.21 63.70 63.73 63.87 63.98 65.87 66.80 67.81 69.56 71.14 72.29 72.28 72.29
59.61 60.65 62.75 64.93 64.46 65.32 64.84 63.73 63.52 64.52 65.25 63.65 63.68 63.36 60.34 59.29 58.67 57.02 56.26 56.06 56.00 57.22 61.31 61.81 62.33 62.29 63.57 62.96 63.45 65.97 64.27 62.63 63.02 62.98 62.83 63.01 65.41 66.95 68.26 69.76 71.28 71.98 71.74
61.18 60.88 61.44 63.15 64.18 65.71 66.08 65.97 64.38 63.72 64.30 63.26 61.62 62.30 60.56 56.58 57.63 58.79 57.11 55.20 53.62 57.44 57.44 59.77 58.89 60.70 61.01 60.84 61.63 63.67 62.65 62.31 62.29 61.07 60.24 61.05 62.09 63.19 64.17 65.50 66.80 67.70 68.43
60.56 61.37 62.17 62.16 62.52 63.54 64.39 65.10 64.00 62.34 62.61 60.43 61.31 61.61 60.18 59.26 59.06 59.71 59.21 57.98 56.03 51.96 52.70 59.53 56.90 61.36 60.52 60.31 61.68 61.90 61.83 62.45 62.49 61.08 60.25 60.34 59.75 60.37 61.21 61.65 62.85 63.76 64.50
57.60 57.98 59.27 60.73 61.69 63.09 63.27 63.04 63.42 63.01 58.20 58.42 59.36 59.34 58.66 57.25 57.54 58.11 57.67 56.76 57.11 55.71 55.15 59.23 57.75 60.81 61.58 63.21 63.27 63.52 63.23 63.24 61.87 60.90 60.54 59.49 58.71 58.99 59.35 59.56 60.16 61.16 62.34
55.94 57.24 57.99 57.92 58.26 58.60 61.08 59.27 59.89 61.18 57.74 56.80 57.91 57.76 57.36 57.41 57.29 57.59 57.85 60.25 60.26 57.79 54.60 58.25 57.20 57.98 57.18 59.22 58.25 60.78 63.16 62.65 63.09 60.09 60.10 59.38 58.32 57.95 58.19 58.22 58.50 59.18 60.00
54.59 56.22 57.17 57.05 57.73 58.38 57.96 58.83 58.28 58.72 58.07 57.16 57.91 57.30 57.34 57.90 56.30 58.00 59.22 60.44 60.86 59.95 58.40 56.13 55.29 56.04 56.03 55.86 57.07 57.66 60.60 64.18 62.84 62.64 60.86 59.63 58.40 57.52 56.98 56.68 56.34 56.64 56.68
52.01 53.05 56.63 56.25 56.74 57.42 56.92 60.04 59.61 58.60 57.82 58.64 57.63 56.67 56.51 56.17 55.82 56.54 56.94 60.74 59.87 59.61 57.30 55.84 54.03 54.59 55.03 56.44 56.84 58.52 59.35 60.71 63.46 64.07 60.12 58.63 57.95 57.63 56.99 56.28 55.25 54.53 53.64
51.59 52.46 54.07 55.59 56.23 56.67 56.97 58.04 60.34 60.68 58.99 58.33 58.85 57.62 57.47 56.68 55.63 55.21 58.01 61.28 59.85 57.91 56.52 56.03 54.38 53.50 54.34 56.14 57.20 56.48 55.90 57.64 58.81 62.56 62.30 60.87 59.09 57.79 56.38 55.76 56.10 55.58 53.10
51.02 51.08 51.54 53.76 55.29 56.20 56.57 54.96 56.01 57.63 57.81 56.79 56.84 57.03 56.30 57.70 57.79 57.62 61.52 59.11 58.79 57.45 56.10 55.52 54.63 50.81 51.52 50.91 51.19 54.69 54.99 55.80 56.62 57.86 58.56 59.94 60.65 60.68 60.38 57.57 58.27 57.47 54.01
48.08 49.12 49.53 50.98 52.42 55.10 51.87 51.05 51.97 54.24 56.20 56.36 56.42 57.96 57.17 56.65 56.92 55.46 55.66 56.56 58.76 57.62 55.11 53.00 50.31 47.69 47.90 49.93 51.68 52.24 53.16 53.07 50.82 57.28 57.14 56.96 58.80 60.08 60.69 60.87 58.07 54.91 52.76
45.33 44.83 46.46 48.61 49.61 51.46 48.89 47.55 48.45 52.95 55.16 55.22 53.60 55.39 57.56 60.32 57.62 59.70 55.27 54.39 54.01 52.55 54.36 51.71 48.14 47.44 48.15 50.27 51.26 51.30 52.21 52.84 52.12 54.82 54.91 54.24 56.48 57.91 59.98 61.85 54.57 52.21 50.94
43.34 43.31 44.38 45.71 46.37 48.67 47.89 46.53 46.69 51.01 54.10 52.98 54.77 54.99 56.22 57.98 57.01 57.01 54.59 52.62 52.04 50.37 50.30 49.89 48.33 49.87 50.95 52.35 53.89 52.81 50.82 51.00 52.74 54.60 56.08 56.42 55.80 56.66 59.00 60.75 52.57 52.94 50.94
42.46 42.48 44.09 44.97 45.91 47.81 46.95 46.18 46.15 51.00 52.73 53.06 55.98 56.26 56.80 56.93 51.05 46.98 51.56 49.62 48.10 48.28 48.87 48.28 48.28 47.29 47.65 47.17 51.89 50.59 49.11 50.12 50.47 52.47 57.35 57.55 55.60 56.22 56.79 60.02 58.86 51.12 50.04
44.56 44.43 44.50 45.26 46.31 46.58 45.92 45.05 46.49 52.10 51.13 52.75 53.88 55.67 51.23 54.05 46.80 45.34 50.41 48.41 48.06 49.10 52.94 50.95 49.80 48.90 48.14 49.63 44.62 50.30 50.70 50.77 50.93 51.28 57.13 55.14 54.22 55.34 52.82 60.36 59.32 56.24 53.69
MSLP
1012.44 1012.85 1012.70 1013.09 1012.94 1013.04 1013.19 1013.48 1013.76 1013.55 1013.55 1013.57 1013.40 1013.34 1012.91 1012.93 1013.13 1013.05 1012.75 1012.58 1012.53 1012.71 1012.63 1012.52 1012.86 1012.83 1012.92 1012.99 1013.30 1013.34 1013.65 1014.28 1014.13 1013.91 1014.08 1014.16 1014.52 1014.98 1015.02 1015.03 1015.24 1015.41 1015.60
1011.68 1012.10 1012.40 1012.68 1012.77 1012.74 1012.76 1012.94 1013.31 1013.46 1013.49 1013.36 1013.33 1012.96 1012.67 1012.57 1012.55 1012.62 1012.50 1012.61 1012.54 1012.45 1012.33 1012.13 1012.20 1012.50 1012.49 1012.74 1012.68 1012.71 1013.04 1013.58 1014.00 1013.69 1013.77 1013.95 1013.70 1014.27 1014.65 1014.74 1014.94 1015.08 1015.27
1010.93 1011.33 1011.68 1012.11 1012.08 1012.35 1012.73 1012.85 1013.02 1012.98 1013.12 1013.01 1012.85 1012.61 1012.33 1012.13 1012.19 1012.09 1012.03 1012.04 1011.98 1012.16 1012.09 1012.09 1011.87 1011.90 1012.02 1012.09 1012.48 1012.47 1012.46 1012.94 1013.51 1013.78 1013.31 1013.42 1013.53 1013.69 1014.23 1014.29 1014.30 1014.53 1014.82
1010.23 1010.95 1011.36 1011.40 1011.72 1012.38 1012.44 1012.65 1012.86 1012.98 1013.15 1013.17 1012.83 1012.53 1012.48 1012.01 1011.77 1011.72 1011.43 1011.39 1011.36 1011.60 1011.61 1011.71 1011.80 1011.82 1011.93 1011.82 1011.78 1012.05 1012.46 1012.14 1013.23 1013.28 1013.19 1013.18 1013.38 1013.28 1013.70 1013.88 1013.97 1014.13 1014.33
1009.98 1010.53 1010.87 1010.95 1011.05 1011.61 1012.04 1012.25 1012.47 1012.61 1012.88 1012.87 1012.93 1012.65 1012.11 1011.74 1011.41 1011.21 1011.33 1011.32 1011.26 1011.24 1011.34 1011.49 1011.53 1011.66 1011.63 1011.84 1012.03 1011.98 1012.25 1012.30 1011.98 1012.58 1012.76 1012.84 1012.96 1012.99 1013.13 1013.38 1013.70 1013.99 1014.29
1009.50 1010.11 1010.32 1010.43 1010.83 1011.28 1011.26 1011.64 1012.15 1012.37 1012.36 1012.23 1012.23 1011.96 1011.88 1011.80 1011.94 1011.63 1011.15 1010.86 1010.90 1011.03 1011.09 1011.03 1010.95 1010.91 1011.04 1011.30 1011.62 1011.82 1011.99 1012.25 1012.31 1012.21 1012.52 1012.73 1012.78 1012.74 1012.84 1013.18 1013.04 1013.25 1013.67
1009.31 1010.01 1009.98 1010.21 1010.49 1010.64 1010.82 1011.14 1011.37 1011.73 1011.60 1011.67 1012.30 1012.11 1011.72 1011.19 1011.01 1010.87 1010.47 1010.38 1010.43 1010.35 1010.39 1010.58 1010.53 1010.57 1010.63 1010.86 1011.17 1011.43 1011.56 1011.82 1012.33 1012.55 1012.44 1012.45 1012.52 1012.48 1012.58 1012.71 1012.81 1012.69 1012.99
1008.57 1009.36 1009.69 1009.72 1009.88 1010.16 1010.62 1011.23 1011.36 1011.44 1011.34 1011.27 1011.23 1011.87 1011.81 1011.35 1010.86 1010.21 1010.04 1010.18 1010.15 1010.11 1010.15 1009.94 1010.18 1010.08 1010.32 1010.53 1010.59 1011.05 1011.55 1011.92 1012.49 1012.33 1012.41 1012.61 1012.65 1012.49 1012.28 1012.35 1012.32 1012.36 1012.50
1008.43 1008.79 1008.93 1009.04 1009.12 1009.39 1009.49 1010.48 1010.70 1011.22 1011.29 1010.86 1010.72 1010.96 1011.17 1010.51 1010.27 1009.47 1009.41 1009.26 1009.31 1009.64 1009.66 1009.70 1009.57 1009.64 1009.78 1010.14 1010.23 1010.57 1010.38 1010.50 1011.28 1011.95 1012.38 1012.66 1012.40 1012.29 1012.36 1011.92 1011.87 1011.97 1012.20
1008.59 1008.35 1008.21 1008.59 1008.88 1009.12 1009.67 1009.01 1009.57 1009.72 1009.95 1010.39 1010.54 1010.17 1010.14 1010.38 1010.72 1010.30 1009.25 1008.55 1008.74 1009.11 1009.07 1009.16 1009.60 1009.60 1009.75 1009.90 1009.77 1009.51 1009.47 1009.87 1010.33 1010.97 1011.68 1012.01 1012.00 1012.20 1011.94 1011.78 1011.41 1011.47 1011.59
1008.75 1008.50 1008.26 1008.34 1008.50 1008.76 1008.96 1008.29 1008.42 1009.25 1009.31 1009.68 1009.69 1009.65 1010.24 1010.27 1010.65 1011.91 1010.31 1009.30 1009.02 1008.82 1008.73 1008.80 1009.36 1009.75 1009.36 1009.33 1009.47 1009.28 1009.44 1009.66 1009.43 1009.15 1010.65 1011.94 1011.61 1011.11 1011.30 1010.98 1010.64 1010.71 1010.77
1008.65 1008.41 1008.14 1008.08 1007.86 1008.09 1007.96 1008.11 1008.00 1008.23 1008.40 1009.03 1008.90 1009.36 1009.96 1010.58 1011.15 1011.11 1011.84 1011.92 1011.61 1010.64 1009.56 1008.83 1009.01 1009.30 1009.27 1008.82 1008.95 1009.21 1009.09 1009.38 1009.23 1009.36 1010.00 1010.44 1009.79 1009.91 1010.12 1009.72 1009.68 1009.80 1010.02
1008.80 1008.62 1008.20 1007.91 1007.80 1007.59 1007.35 1007.21 1007.41 1007.60 1007.99 1006.07 1007.62 1008.61 1009.51 1009.38 1009.45 1009.36 1010.36 1011.34 1012.31 1011.50 1012.65 1008.90 1008.73 1008.82 1008.81 1008.38 1008.36 1008.39 1008.30 1008.83 1009.01 1009.31 1009.39 1009.51 1010.20 1010.63 1009.71 1009.21 1009.15 1009.15 1009.26
1008.44 1008.46 1008.51 1008.23 1007.81 1007.47 1007.09 1006.77 1007.15 1007.32 1006.90 1006.09 1007.24 1007.48 1008.38 1008.58 1008.74 1008.78 1010.03 1010.76 1011.35 1010.93 1011.84 1010.62 1007.57 1008.23 1008.12 1007.63 1007.70 1007.81 1007.73 1007.97 1007.81 1008.25 1008.51 1008.70 1008.45 1008.64 1008.43 1008.48 1008.60 1008.81 1008.67
1007.94 1008.01 1008.00 1007.91 1007.68 1007.32 1006.80 1006.38 1006.39 1006.21 1006.13 1006.27 1006.45 1006.84 1007.27 1007.51 1007.64 1007.87 1008.52 1009.29 1009.53 1010.14 1009.67 1009.59 1007.94 1007.61 1007.61 1007.11 1007.26 1006.94 1006.97 1007.48 1007.64 1007.46 1007.59 1008.01 1008.31 1008.19 1007.63 1007.58 1008.03 1008.17 1008.49
1007.64 1007.68 1007.64 1007.40 1007.08 1006.72 1006.38 1005.94 1005.61 1005.30 1005.54 1005.56 1005.69 1006.13 1006.40 1006.50 1006.57 1006.95 1007.45 1007.98 1008.41 1009.19 1009.26 1008.81 1007.37 1007.36 1007.05 1006.98 1006.62 1006.45 1006.96 1006.81 1007.15 1006.86 1006.82 1007.10 1007.50 1007.16 1006.99 1006.86 1007.16 1007.45 1007.60
1007.10 1007.21 1007.19 1007.10 1006.84 1006.44 1006.05 1005.79 1005.55 1005.08 1005.00 1005.14 1005.23 1005.28 1005.32 1005.31 1005.66 1006.22 1006.96 1007.23 1007.36 1007.89 1008.13 1007.68 1006.85 1007.32 1006.89 1006.63 1006.07 1006.36 1006.89 1006.94 1007.04 1006.62 1006.81 1007.18 1007.24 1007.20 1006.96 1007.03 1006.98 1007.00 1006.93
1006.26 1006.38 1006.44 1006.48 1006.37 1006.05 1005.72 1005.39 1005.03 1004.76 1004.68 1004.63 1004.41 1004.55 1004.45 1004.58 1004.86 1005.26 1005.67 1005.82 1005.86 1006.33 1005.90 1006.02 1006.39 1006.92 1006.62 1006.40 1006.00 1006.27 1006.31 1006.36 1006.62 1006.18 1006.22 1006.54 1006.56 1006.55 1006.62 1006.64 1006.24 1006.47 1006.18
1005.49 1005.43 1005.52 1005.67 1005.69 1005.57 1005.34 1004.75 1004.34 1004.01 1003.95 1003.91 1003.88 1003.92 1003.64 1004.02 1004.07 1004.50 1004.86 1005.28 1005.55 1005.23 1004.98 1005.15 1006.14 1006.42 1006.27 1006.32 1006.28 1006.08 1006.16 1006.41 1006.28 1006.04 1006.05 1006.02 1006.08 1005.89 1005.87 1006.47 1006.23 1005.84 1005.69
1004.67 1004.57 1004.60 1004.66 1004.76 1004.79 1004.73 1004.38 1003.69 1003.47 1003.39 1003.17 1003.19 1003.33 1003.49 1003.79 1003.75 1003.90 1004.17 1004.50 1004.68 1005.02 1005.17 1005.36 1005.61 1005.94 1006.00 1006.40 1006.32 1006.55 1006.71 1006.65 1006.24 1005.76 1005.51 1005.33 1005.39 1005.42 1005.21 1005.81 1005.84 1005.39 1005.21
1004.35 1004.14 1004.07 1003.97 1003.95 1004.06 1004.04 1003.96 1003.69 1003.15 1002.72 1002.63 1002.72 1002.56 1002.63 1002.94 1003.08 1003.26 1003.36 1003.84 1004.30 1004.44 1005.09 1005.53 1005.74 1005.88 1006.18 1006.56 1006.49 1006.74 1006.90 1006.84 1006.45 1005.95 1005.56 1005.20 1005.32 1005.27 1004.92 1005.14 1005.51 1005.24 1004.94
1003.98 1003.91 1003.79 1003.66 1003.55 1003.38 1003.41 1003.28 1003.29 1003.24 1002.63 1002.21 1001.92 1001.71 1001.73 1001.81 1002.21 1002.24 1002.31 1002.87 1003.14 1004.03 1004.63 1005.11 1005.73 1005.81 1006.36 1006.59 1006.57 1006.82 1006.99 1007.08 1006.96 1006.17 1005.96 1005.30 1005.25 1005.22 1004.89 1004.70 1004.45 1005.17 1004.65
1003.46 1003.38 1003.25 1003.21 1002.99 1002.76 1002.85 1003.01 1002.80 1002.71 1002.62 1002.14 1001.54 1001.32 1001.07 1000.71 1001.10 1001.41 1002.02 1002.19 1002.44 1003.06 1003.15 1003.97 1005.10 1005.48 1005.94 1005.96 1006.09 1006.63 1006.81 1007.05 1007.19 1006.40 1006.29 1005.81 1005.14 1005.19 1004.61 1004.10 1003.72 1004.90 1004.37
1002.42 1002.42 1002.38 1002.36 1002.23 1002.00 1001.97 1002.20 1002.17 1002.08 1001.73 1001.30 1000.87 1000.86 999.93 1000.01 1000.51 1000.92 1001.13 1001.79 1002.55 1002.98 1003.24 1003.50 1003.54 1004.09 1004.40 1005.09 1005.43 1005.93 1006.59 1006.73 1006.63 1006.10 1006.23 1005.90 1005.21 1004.82 1004.30 1003.87 1003.65 1004.39 1004.08
1001.48 1001.52 1001.42 1001.57 1001.50 1001.32 1001.03 1001.04 1001.20 1001.16 1000.85 1000.38 1000.12 999.94 999.37 1000.27 1000.46 1000.22 1000.60 1001.55 1002.16 1002.56 1002.51 1002.60 1003.12 1003.55 1003.97 1004.74 1005.60 1006.19 1006.36 1006.82 1007.05 1006.08 1005.82 1005.10 1005.45 1004.92 1004.22 1004.09 1004.25 1004.49 1004.25
1000.29 1000.40 1000.46 1000.56 1000.61 1000.60 1000.33 1000.30 1000.39 1000.11 1000.10 999.73 999.36 999.59 999.94 1000.05 999.93 999.83 1000.20 1001.06 1001.95 1002.68 1002.55 1003.04 1003.48 1004.19 1004.47 1004.75 1005.26 1005.31 1005.90 1006.50 1006.74 1006.61 1005.48 1005.17 1005.32 1004.78 1004.79 1004.15 1004.25 1004.22 1004.50
Wind_Speed
6 5 6 5 7 5 6 5 5 5 6 7 8 9 8 7 5 4 3 12 16 17 15 15 15 15 15 14 13 13 14 15 15 15 14 14 12 11 12 12 11 11 11
8 7 7 7 7 6 7 6 7 6 6 5 7 8 9 6 6 6 3 5 13 14 16 16 16 16 16 15 15 15 15 15 16 16 15 15 16 14 13 13 13 13 13
11 11 7 8 8 7 6 4 6 5 5 5 9 8 8 7 5 6 6 6 6 14 14 15 16 17 17 16 16 15 16 16 17 17 16 17 16 15 14 15 15 15 15
13 8 7 8 5 3 5 5 4 4 4 4 7 6 4 4 5 7 6 5 4 5 8 15 15 15 16 17 17 16 16 17 16 17 17 17 16 16 16 16 15 15 15
11 10 8 8 7 7 5 4 4 3 4 4 4 5 5 5 6 5 7 5 6 5 4 7 12 14 15 15 16 16 16 17 19 19 18 17 17 17 18 16 15 14 13
10 8 10 9 4 5 6 4 4 3 5 7 8 6 4 4 4 6 8 5 5 6 5 6 5 6 14 15 15 16 17 17 18 18 17 16 16 17 17 16 16 16 15
8 9 9 8 5 8 9 5 5 7 8 3 1 3 4 6 7 6 5 5 6 7 6 5 4 4 4 11 12 13 16 19 17 15 16 15 16 17 17 17 16 16 16
9 7 7 6 4 4 3 5 5 8 4 6 7 2 4 5 4 9 7 7 9 4 4 7 5 6 3 2 3 1 6 9 15 15 15 13 15 17 17 17 17 17 15
8 5 8 6 4 3 4 10 7 7 10 5 9 6 2 8 0 3 9 8 8 5 4 6 4 4 5 4 7 11 13 10 4 12 18 19 16 18 19 17 17 16 15
6 7 11 8 5 8 9 8 10 12 12 14 4 9 6 1 3 4 3 4 6 7 6 4 2 3 5 4 9 11 8 6 5 4 12 20 23 25 23 18 16 15 15
4 5 6 4 5 7 8 9 8 12 10 12 7 7 8 3 5 6 5 5 3 4 5 5 5 4 5 6 4 4 9 8 4 1 14 17 22 33 30 20 17 16 16
2 5 5 7 10 9 10 11 10 12 10 4 3 4 3 4 4 5 6 14 8 10 6 2 5 4 4 4 6 10 10 8 7 8 8 18 14 36 35 18 16 17 18
0 4 4 4 6 10 12 14 13 13 10 10 12 8 7 8 4 3 8 8 7 5 13 5 4 5 5 5 4 10 11 13 9 11 14 8 10 25 14 12 13 15 17
4 3 5 6 7 6 8 13 12 13 13 12 15 9 8 7 4 5 5 6 3 3 6 20 2 4 5 5 7 11 6 12 13 11 7 15 15 16 14 11 12 13 13
3 5 6 4 7 8 9 10 10 11 10 9 12 12 7 6 7 7 9 9 8 7 11 16 4 5 5 4 9 7 8 10 9 11 13 16 15 13 11 10 12 12 12
1 3 5 6 8 7 10 10 9 9 7 7 7 11 10 6 8 7 7 7 8 10 11 9 8 5 5 5 8 5 4 7 12 14 14 12 15 13 11 8 11 14 15
3 3 3 4 5 6 8 6 9 10 7 7 8 12 13 10 9 8 9 8 10 10 12 12 3 5 4 6 5 1 3 4 6 13 11 12 12 13 12 12 13 13 12
5 6 6 4 5 6 8 8 9 9 10 10 12 10 14 10 11 12 9 10 9 12 9 7 4 5 6 4 5 4 5 3 5 6 8 11 10 10 11 12 10 11 11
6 5 5 5 5 6 7 10 10 10 11 11 11 12 14 10 11 9 6 6 4 4 2 4 5 3 3 1 3 2 2 4 4 8 9 10 10 10 8 12 10 9 11
7 6 6 6 6 6 6 10 11 9 8 9 10 11 12 11 12 8 6 7 5 4 3 2 2 2 2 1 2 2 2 2 2 2 4 6 7 8 7 10 12 9 9
5 6 6 5 6 6 6 6 5 6 8 8 6 9 10 9 11 8 5 6 7 5 3 3 2 2 2 1 3 1 1 2 4 3 3 3 3 3 4 6 11 11 10
5 5 5 5 6 5 10 13 6 5 6 6 7 9 10 9 13 16 15 13 12 9 5 4 3 2 3 3 3 3 2 0 3 2 3 4 0 5 5 4 8 12 11
6 7 7 6 7 6 9 13 13 8 9 7 5 4 7 7 12 14 15 15 15 13 12 8 7 6 5 7 6 4 3 3 3 5 1 5 2 4 4 5 8 11 8
8 7 7 8 7 8 11 16 16 11 10 10 6 5 4 10 10 11 11 9 8 8 9 6 8 8 5 6 4 4 5 2 3 4 4 3 1 3 4 4 4 9 8
8 7 6 7 9 8 12 16 11 8 10 9 4 3 6 8 14 14 12 10 7 5 5 8 6 8 9 9 6 4 0 1 3 3 3 2 2 3 2 2 2 4 2
10 7 7 8 11 12 11 15 11 6 6 4 2 2 9 11 18 13 10 9 8 7 6 4 1 2 5 4 7 5 4 4 2 3 3 3 1 2 5 1 1 1 3
Wind_Direction
204 216 207 206 208 199 201 209 227 232 237 237 243 245 249 245 242 248 243 221 201 214 217 211 215 211 211 207 212 205 204 216 205 201 201 196 200 207 207 200 195 194 200
206 204 211 218 222 212 213 209 220 225 236 229 241 242 248 242 231 225 219 228 220 218 219 216 216 220 215 215 210 206 205 210 218 204 203 203 199 203 207 207 205 199 202
208 210 208 214 219 211 213 205 226 226 236 234 242 242 231 235 237 224 201 216 217 232 231 229 225 223 219 214 219 213 204 208 216 218 204 207 205 198 208 211 206 205 203
213 210 214 220 209 199 203 209 213 234 249 245 253 249 270 262 246 239 236 221 212 229 233 238 240 237 236 225 216 215 218 197 217 224 214 211 208 200 207 214 217 212 207
212 213 219 224 186 192 207 205 222 186 218 241 254 252 245 242 244 254 255 252 230 228 225 245 245 244 241 239 236 224 217 216 207 216 218 214 211 208 210 208 214 223 225
211 210 227 230 189 205 203 184 196 197 215 228 236 240 250 270 285 248 250 238 233 250 245 235 235 235 236 237 237 232 225 227 224 215 219 220 217 217 215 215 208 214 222
218 220 232 227 200 230 235 197 189 201 234 185 77 298 268 233 244 247 232 233 237 233 228 249 239 237 236 227 234 236 234 235 232 229 228 221 222 222 220 218 216 214 218
221 206 218 233 201 214 229 252 231 244 249 191 217 145 268 305 249 239 233 234 242 232 235 242 240 239 219 178 180 252 301 325 306 267 241 242 237 235 225 222 219 223 218
260 227 188 200 205 184 212 254 238 232 263 261 222 195 200 231 204 212 230 229 231 213 223 244 243 235 161 133 117 129 126 123 28 321 321 328 267 243 243 224 223 224 224
300 263 239 212 238 301 280 252 249 241 227 247 240 244 257 360 201 295 276 235 225 223 215 221 196 181 162 151 164 177 151 127 143 263 290 290 299 303 259 235 224 224 223
250 252 261 241 241 228 233 228 247 265 256 256 234 268 232 251 346 329 304 330 353 248 218 202 177 218 200 195 202 165 146 170 160 38 287 271 287 284 289 234 221 223 222
311 291 247 239 239 241 244 250 262 261 254 296 267 247 199 173 197 133 8 331 328 324 294 239 181 198 227 224 219 185 186 160 192 185 233 287 263 272 268 234 220 221 226
8 252 277 290 242 244 249 249 252 247 226 203 224 215 186 194 198 181 182 227 251 321 291 250 221 194 221 227 221 214 195 184 176 163 210 226 209 249 261 251 239 233 237
320 275 227 254 259 258 247 239 235 232 225 207 210 210 200 207 186 156 160 169 253 170 295 297 166 223 229 222 219 216 211 200 209 206 225 238 227 234 238 249 249 250 237
325 351 324 272 242 251 253 236 223 228 226 208 204 209 192 187 189 196 194 201 200 230 235 265 231 222 220 206 229 202 204 203 226 238 243 256 257 253 237 236 234 241 243
4 338 327 329 322 290 251 251 250 244 198 202 196 198 201 186 183 178 192 200 212 217 245 225 219 218 210 226 244 226 212 209 228 236 251 262 266 271 269 246 238 235 231
236 253 256 309 320 325 304 256 249 253 234 211 195 189 198 192 190 182 190 218 199 184 216 257 195 231 232 241 280 137 237 229 248 233 227 238 253 260 257 248 239 240 240
233 218 215 240 267 282 290 255 252 244 228 214 213 202 211 204 204 198 197 209 196 193 189 191 187 216 215 236 252 281 293 281 269 262 241 250 244 247 258 259 248 240 238
252 249 208 227 251 271 285 272 245 241 231 224 216 213 220 212 221 202 194 206 229 181 248 134 181 188 204 278 267 304 294 276 251 240 233 238 254 250 264 266 258 250 247
247 253 235 228 234 245 258 281 270 245 236 224 221 223 232 232 235 210 184 204 209 189 188 140 139 141 141 174 108 111 350 314 294 282 268 242 249 254 258 269 268 246 238
266 274 280 263 248 248 249 250 266 266 237 251 233 230 231 220 217 218 184 189 188 164 165 184 141 97 116 119 135 183 185 291 288 269 312 329 324 307 285 257 270 252 220
249 254 270 275 273 269 261 244 228 253 242 225 242 254 237 231 232 238 232 189 180 173 172 142 156 149 183 183 161 165 161 66 323 316 356 303 284 291 283 259 232 234 205
230 242 248 253 263 257 251 241 235 231 239 226 191 257 267 240 224 232 234 196 176 181 167 153 160 185 172 187 147 152 183 161 222 272 322 277 197 270 270 264 232 232 206
222 219 224 235 246 262 242 245 235 228 235 252 230 192 304 272 228 176 162 149 161 165 162 169 164 165 163 162 154 161 177 191 293 277 190 260 333 268 291 297 222 224 198
227 220 220 241 248 253 243 246 231 222 229 237 226 241 352 241 203 167 151 156 152 200 182 166 141 155 180 172 163 124 102 104 288 272 230 132 290 291 305 319 69 31 142
227 217 224 226 237 255 262 244 211 220 230 249 187 229 216 221 181 164 149 150 152 213 168 146 146 195 211 203 177 187 150 206 211 291 251 131 270 45 337 316 235 297 112